Simultaneous Nadir Overpasses (SNOs) Predictions

Prediction of SNOs between GOES-16 and AQUA Satellite Orbit:

Table of predicted SNOs for the next 14.0 days since TLE Epoch: 2/2/2017
Index Date Time (GOES-16) GOES-16 Lat,Lon AQUA Lat,Lon Distance(km) Time Diff (sec)
1 02/04/2017 07:31:11 0.02, -89.48 -0.02, -89.26 24.30 80
2 02/06/2017 07:19:00 0.03, -89.49 -0.62, -86.30 362.34 80
3 02/06/2017 19:40:25 -0.03, -89.50 -0.45, -91.50 226.84 80
4 02/08/2017 19:30:54 -0.04, -89.52 0.17, -88.54 111.67 80
5 02/09/2017 07:52:09 0.04, -89.52 0.90, -93.70 474.22 80
6 02/10/2017 19:18:43 -0.04, -89.54 0.79, -85.58 450.74 80
7 02/11/2017 07:39:59 0.04, -89.55 0.28, -90.74 135.04 80
8 02/13/2017 07:25:08 0.04, -89.58 -0.34, -87.78 204.77 80
9 02/13/2017 19:46:31 -0.05, -89.59 -0.78, -92.96 384.31 80
10 02/15/2017 19:34:20 -0.05, -89.63 -0.15, -90.01 43.83 80




NCC Satellite Simultaneous Nadir Overpasses (SNOs) Prediction Service
